Home > Time Zones > World Clock > Weather > U.S.A. > Adak > Past weeks

Flag for U.S.A. Weather past 2 weeks in Adak, Alaska, U.S.A.

Now
52 °F

Mostly cloudy.


Feels Like: 48 °F
Forecast: 49 / 53 °F
Wind: 12 mph from South

Location: Adak

Current Time: Sep 20, 2014 at 9:53:08 PM

Latest Report: Sep 20, 2014 at 8:56 PM


Visibility: 10 mi

Pressure: 29.71 "Hg

Humidity: 77%

Dew point: 45 °F

Location of AdakLocation

Historic Weather in Adak — Graph

°F

Adak temperature yesterday

Maximum temperature yesterday: 54 °F (at 12:56 PM)
Minimum temperature yesterday: 39 °F (at 3:36 AM)
Average temperature yesterday: 48 °F

Past Weeks' High & Low Weather Summary

 TemperatureHumidityPressure
High57 °F (Sep 14, 4:56 PM)94% (Sep 9, 3:56 AM)30.03 "Hg (Sep 9, 3:56 AM)
Low39 °F (Sep 19, 3:36 AM)54% (Sep 16, 11:36 AM)28.96 "Hg (Sep 6, 8:36 PM)
Average51 °F76%29.58 "Hg
* Reported Sep 5 8:16 PM — Sep 20 8:56 PM, Adak, Weather by CustomWeather, © 2014

Note: Actual official high and low records may vary slightly from our data, if they occured in-between our weather recording intervals... More about our weather records

Advertising

Adak weather history for previous 24 hours

 ConditionsComfort  
Time TempWeatherWind HumidityBarometerVisibility
8:56 PM
Sep 20
52 °FMostly cloudy.12 mph77%29.71 "Hg10 mi
8:36 PM52 °FOvercast.10 mph77%29.72 "Hg10 mi
8:16 PM52 °FOvercast.12 mph77%29.72 "Hg10 mi
7:56 PM52 °FOvercast.13 mph77%29.72 "Hg10 mi
7:36 PM52 °FOvercast.6 mph77%29.72 "Hg10 mi
7:16 PM52 °FOvercast.7 mph82%29.72 "Hg10 mi
6:56 PM52 °FOvercast.10 mph82%29.72 "Hg10 mi
6:36 PM52 °FMostly cloudy.13 mph82%29.73 "Hg10 mi
6:16 PM52 °FMore clouds than sun.13 mph82%29.73 "Hg10 mi
5:56 PM52 °FOvercast.14 mph82%29.73 "Hg10 mi
5:36 PM52 °FMostly cloudy.15 mph82%29.74 "Hg9 mi
5:16 PM52 °FMostly cloudy.16 mph82%29.74 "Hg10 mi
4:56 PM52 °FOvercast.14 mph82%29.74 "Hg9 mi
4:36 PM52 °FMostly cloudy.16 mph82%29.75 "Hg10 mi
4:16 PM52 °FBroken clouds.15 mph82%29.76 "Hg9 mi
3:56 PM52 °FBroken clouds.10 mph82%29.76 "Hg10 mi
3:36 PM52 °FMostly cloudy.12 mph82%29.77 "Hg10 mi
3:16 PM52 °FOvercast.9 mph82%29.78 "Hg5 mi
2:56 PM52 °FMostly cloudy.17 mph82%29.78 "Hg6 mi
2:36 PM52 °FMostly cloudy.15 mph82%29.79 "Hg7 mi
2:16 PM52 °FOvercast.12 mph77%29.79 "Hg10 mi
1:56 PM52 °FOvercast.13 mph77%29.80 "Hg9 mi
1:36 PM52 °FOvercast.7 mph82%29.80 "Hg10 mi
1:16 PM52 °FOvercast.10 mph77%29.81 "Hg5 mi
12:56 PM52 °FMostly cloudy.8 mph82%29.82 "Hg5 mi
12:36 PM54 °FOvercast.9 mph72%29.82 "Hg10 mi
11:56 AM52 °FMostly cloudy.15 mph77%29.82 "Hg10 mi
11:36 AM52 °FOvercast.12 mph77%29.83 "Hg10 mi
11:16 AM50 °FMostly cloudy.10 mph82%29.83 "Hg10 mi
10:56 AM50 °FMostly cloudy.9 mph76%29.84 "Hg10 mi
10:36 AM50 °FMostly cloudy.8 mph76%29.85 "Hg10 mi
10:16 AM50 °FMostly cloudy.8 mph76%29.85 "Hg10 mi
9:56 AM48 °FMore clouds than sun.7 mph82%29.85 "Hg10 mi
9:36 AM48 °FMore clouds than sun.No wind82%29.85 "Hg10 mi
8:56 AM50 °FMostly cloudy.12 mph76%29.85 "Hg10 mi
4:36 AM43 °FClear.No wind81%29.90 "Hg10 mi
4:16 AM45 °FClear.No wind76%29.90 "Hg10 mi
3:56 AM43 °FClear.No wind81%29.91 "Hg10 mi
3:36 AM43 °FClear.3 mph81%29.91 "Hg10 mi
3:16 AM45 °FPassing clouds.3 mph76%29.92 "Hg10 mi
2:56 AM43 °FClear.No wind81%29.92 "Hg10 mi
2:36 AM43 °FClear.5 mph81%29.93 "Hg10 mi
2:16 AM43 °FClear.3 mph81%29.94 "Hg10 mi
1:56 AM43 °FClear.3 mph81%29.94 "Hg10 mi
1:36 AM43 °FClear.3 mph81%29.94 "Hg10 mi
1:16 AM45 °FClear.5 mph76%29.94 "Hg10 mi
12:56 AM45 °FQuite cool.6 mphN/A29.94 "HgN/A
12:16 AM45 °FClear.5 mph76%29.95 "Hg10 mi
11:56 PM
Sep 19
45 °FClear.5 mph76%29.96 "Hg10 mi
11:36 PM45 °FClear.No wind76%29.96 "Hg10 mi
11:16 PM45 °FClear.3 mph76%29.96 "Hg10 mi
10:56 PM45 °FClear.5 mph76%29.96 "Hg10 mi
10:36 PM46 °FClear.No wind71%29.96 "Hg10 mi
10:16 PM46 °FClear.6 mph76%29.96 "Hg10 mi
9:56 PM46 °FClear.7 mph71%29.96 "Hg10 mi
9:36 PM46 °FSunny.8 mph71%29.96 "Hg10 mi
9:16 PM46 °FSunny.10 mph76%29.96 "Hg10 mi
Weather by CustomWeather, © 2014

See weather overviewHow to use our weather pages